sat.trackr.live / text

‹ back to catalog

BEIDOU-3 M25 (C47)

NORAD 61186 · 2024-168B

PAYLOAD ACTIVE UNKNOWN

§ Identity

Operator
Country
PRC
Launch date
2024-09-19
Launch site
XICLF
Launch vehicle
Mass (kg)
RCS (m²)

Purposes: nav

External: N2YO · Heavens-Above · Gunter

§ Orbital elements

Epoch: 2026-05-23T18:15:03.115008Z

Period
773.24 min
Inclination
54.4958°
Eccentricity
0.0002982
Mean motion
1.86230046 rev/d
Perigee alt
21,519.8 km
Apogee alt
21,536.5 km
Semi-major
27,906.3 km
B*
0.0000e+0
RAAN
303.0900°
Arg perigee
311.8334°
Mean anomaly
49.3076°
Rev number
1,133

§ Raw data

BEIDOU-3 M25 (C47)1 61186U 24168B   26143.76045272 -.00000078  00000+0  00000+0 0  99962 61186  54.4958 303.0900 0002982 311.8334  49.3076  1.86230046 11335

JSON: /api/v1/satellites/61186 · /tle

For live sub-satellite position, see the globe view (requires WebGL).

§ Visibility from observer

Set your observer location to see the next 7 days of passes ≥ 10°. The values pass through the URL so the page stays shareable.

No JS? Fill the form by hand. The geolocation button needs JavaScript.